Regional Weather Roundup
Issued by NWS State College, PA

Home | Current Version | Previous Version | Graphics & Text | Print | Product List | Glossary Off
Versions: 1 2 3 4 5 6 7 8 9 10 11 12 13 14 15 16 17 18 19 20 21 22 23 24 25 26 27 28 29 30 31 32 33 34 35 36 37 38 39 40 41 42 43 44 45 46 47 48 49 50

000
ASUS41 KCTP 061110
RWRCTP

REGIONAL WEATHER ROUNDUP
NATIONAL WEATHER SERVICE STATE COLLEGE PA
600 AM EST TUE DEC 06 2016

Note: "fair" indicates few or no clouds below 12,000 feet with no
significant weather and/or obstructions to visibility.

* = STATION THAT DOES NOT REPORT PRECIPITATION /E.G. RAIN...SNOW...ETC/
    THUNDER OR FOG.

PAZ002>004-007>009-013>016-020>023-029>032-061200-
WESTERN PENNSYLVANIA

CITY           SKY/WX    TMP DP  RH WIND       PRES   REMARKS
ERIE           CLOUDY    34  28  79 E7        30.00F
MEADVILLE      MOCLDY    32  26  78 E15G22    29.95F
FRANKLIN*        N/A     28  25  86 E9        29.98F
NEW CASTLE     FAIR      35  27  72 E10G20    29.94F
BEAVER COUNTY  NOT AVBL
BUTLER*        PTCLDY    34  25  69 E17       29.95F
PITTSBURGH INT CLOUDY    36  28  73 E12       29.91F
PITTSBURGH     CLOUDY    34  25  69 NE9       29.92F
INDIANA*       CLEAR     36  28  75 E14       29.99F
LATROBE        CLOUDY    37  27  65 E8G20     29.95F
WASHINGTON CO* PTCLDY    34  27  75 NE6       29.91F
$$

PAZ004>006-010>012-017>019-024>028-033>037-041-042-045-046-049>053-061200-
CENTRAL PENNSYLVANIA

CITY           SKY/WX    TMP DP  RH WIND       PRES   REMARKS
BRADFORD       CLOUDY    28  26  92 SE7       30.00F
DUBOIS         CLOUDY    30  25  81 E12       29.98F
CLEARFIELD     CLOUDY    25  23  92 N7        30.05S
JOHNSTOWN      CLOUDY    32  26  78 E9        29.95F
ALTOONA        PTCLDY    32  27  81 NE6       30.04S
STATE COLLEGE  CLEAR     27  27 100 CALM      30.08R
WILLIAMSPORT   CLOUDY    30  23  75 CALM      30.13S
SELINSGROVE    PTCLDY    27  26  96 CALM      30.13S
FT INDIANTOWN  PTCLDY    28  28 100 N2        30.10F
CAPITAL CITY   CLOUDY    33  28  81 CALM      30.10F
HARRISBURG     CLOUDY    31  29  92 E3        30.10F
YORK           PTCLDY    30  30 100 CALM      30.09F
$$

PAZ038>040-043-044-047-048-054-055-060>062-067>071-061200-
EASTERN PENNSYLVANIA

CITY           SKY/WX    TMP DP  RH WIND       PRES   REMARKS
SCRANTON       CLEAR     26  24  92 S3        30.11S
MOUNT POCONO   CLEAR     22  20  92 W3        30.07R
ALLENTOWN      CLOUDY    27  24  89 CALM      30.13S
QUAKERTOWN*    CLOUDY    25  25 100 CALM      30.13F
READING        CLOUDY    29  26  89 NE5       30.11F
LANCASTER      MOCLDY    31  30  96 E3        30.11F
COATESVILLE    CLOUDY    36  28  75 CALM      30.11F
POTTSTOWN      CLOUDY    28  27  96 CALM      30.14F
BLUE BELL      PTCLDY    30  30 100 CALM      30.13S
DOYLESTOWN     CLOUDY    33  28  81 NE3       30.13R
WILLOW GROVE   NOT AVBL
NORTH PHILA    MOCLDY    36  29  75 N3        30.15S
PHILADELPHIA   CLOUDY    38  29  70 N6        30.13F
$$



USA.gov is the U.S. government's official web portal to all federal, state and local government web resources and services.